DELTA 1 DEB (YO), 227

Orbit data source: Space-Track

DELTA 1 DEB (YO), 227 is space debris in LEO originally from a launch on Thu, 08 Feb 1962 UTC launched from the Air Force Eastern Test Range (AFETR). Debris objects in space refer to the collection of defunct objects orbiting the Earth. Examples of debris include non-operational satellites, rocket bodies, and fragments generated from explosions, collisions, or faulty payload assembly.

Loading next visibility...
Identifier
227, 1962-002B
Orbit
LEO
Country
Flag of USUS
Related business
Manufacturer
RCA/East Windsor
Mission
Spacecraft
Bus & Motor
Unknown
Mass
~1 kg wet, ~1 kg dry
Launch date (UTC)
1962-02-08 (64 years ago)
Launch vehicle
Unknown
Launch site
Air Force Eastern Test Range (AFETR)
Object type
Payload
Rocket body
Debris
Shape & HBR
Unknown shape, 0.1 m
Radar Cross Section
Small (<0.1 m²)

Expand to show TLE details & history
Last TLE update: 2 days ago

TLE from 2 days ago
0 DELTA 1 DEB (YO)
1 00227U 62002B   26124.18324898  .00000273  00000-0  12601-3 0  9994
2 00227  48.1466 187.1605 0127981 238.3333 120.5027 14.40749831337958
Epoch: 2026-05-04T04:23Z
TLE epoch observation values (Epoch: 2026-05-04T04:23:52.711Z)
Latitude
-0.00003°
Longitude
-100.88526°
Altitude
803.557 km
Speed
7.428 km/s
True Right ascension
12h 28m 38s
True Declination
0° 00' 00"
Sunlit
Object was in full shadow at epoch
Visualization orbit readout
Latitude
Unknown
Longitude
Unknown
Altitude
Unknown
Speed
Unknown
Apparent Right ascension
Unknown
Apparent Declination
Unknown
Sunlit
N/A
Visualization observer readout
Local Sidereal Time
05:02:25
Azimuth
Unknown
Elevation
Unknown
Doppler factor
Unknown
Orbital elements
Apogee altitude
848.38 km
Perigee altitude
665.746 km
Semi-major axis
7,135.2 km
Eccentricity
0.0128
Inclination
48.1466°
RAAN
187.1605°
Arg. of periapsis
238.3333°
True anomaly
121.75601°
Mean anomaly
120.5027°
Eccentric anomaly
121.13038°
Mean motion
3.60109 °/min
Orbital period
99.97 mins
BSTAR
0.00012601
Loading maneuver chart data...
Computing Atmospheric mass density...
Loading historical data...
Loading historical data...
Loading historical data...
Loading historical data...
Loading historical data...
Loading historical data...
Loading historical data...
Other satellites on launch #2 in the year 1962 (1962-02-08 UTC)

Documentation

Showing up to 5 results
|